EST,Max TemperatureF,Mean TemperatureF,Min TemperatureF,Max Dew PointF,MeanDew PointF,Min DewpointF,Max Humidity, Mean Humidity, Min Humidity, Max Sea Level PressureIn, Mean Sea Level PressureIn, Min Sea Level PressureIn, Max VisibilityMiles, Mean VisibilityMiles, Min VisibilityMiles, Max Wind SpeedMPH, Mean Wind SpeedMPH, Max Gust SpeedMPH,PrecipitationIn, CloudCover, Events, WindDirDegrees
2014-1-1,24,24,23,19,18,18,86,81,80,30.29,30.22,30.15,10,7,2,14,10,,0.00,8,Snow,71
2014-1-2,23,18,14,19,15,10,93,86,79,30.06,29.96,29.86,6,2,0,23,18,33,0.00,8,Snow,52
2014-1-3,14,12,10,7,5,1,79,70,57,30.38,30.35,30.27,10,6,2,14,10,23,0.00,6,Snow,273
2014-1-4,35,26,19,16,11,5,58,45,38,30.10,30.04,29.99,10,10,10,21,17,30,0.00,5,,205
2014-1-5,42,36,32,41,27,19,93,70,56,30.05,29.76,29.37,10,8,7,16,9,,0.00,8,Rain,155
2014-1-6,19,5,-9,18,-4,-20,93,71,59,30.12,29.93,29.74,7,4,1,21,17,32,0.00,7,Snow,262
2014-1-7,5,-1,-7,-6,-11,-17,71,59,51,30.33,30.26,30.19,20,15,7,23,18,29,0.00,2,,239
2014-1-8,23,18,12,16,10,1,80,67,59,30.46,30.39,30.35,10,8,5,16,11,,0.00,6,Snow,235
2014-1-9,30,17,6,27,18,3,93,78,59,30.58,30.45,30.36,10,7,1,14,8,,0.00,5,Snow,160
2014-1-10,44,40,35,32,32,30,87,73,57,30.22,30.08,29.80,7,6,4,14,12,23,0.00,8,Rain,179
2014-1-11,53,44,35,34,32,32,54,47,44,29.64,29.46,29.33,15,11,3,21,14,29,0.00,8,Rain,242
2014-1-12,39,36,33,,,,,,,29.96,29.92,29.83,10,9,5,20,17,25,0.00,5,,228
2014-1-13,50,47,44,45,37,28,93,70,50,29.78,29.70,29.67,10,8,5,17,14,34,0.00,8,Rain,205
2014-1-14,42,38,33,32,28,25,87,66,49,29.89,29.78,29.75,20,10,7,15,10,,0.00,5,,227
2014-1-15,30,28,26,19,17,12,69,60,51,30.01,29.96,29.86,15,8,4,17,15,25,0.00,8,Snow,262
2014-1-16,32,26,21,25,18,12,80,69,44,29.92,29.81,29.74,10,7,2,18,13,25,0.00,7,Snow,196
2014-1-17,39,30,17,32,24,12,93,75,61,29.94,29.81,29.74,15,7,1,17,11,29,0.00,6,Snow,225
2014-1-18,21,18,14,14,10,9,79,67,58,29.97,29.92,29.86,10,8,2,17,13,23,0.00,6,Snow,225
2014-1-19,33,28,23,21,20,18,86,69,60,29.94,29.68,29.62,10,9,7,23,16,41,0.00,7,,243
2014-1-20,35,27,19,30,21,14,93,79,68,29.97,29.82,29.58,10,7,2,16,12,23,0.00,8,Snow,358
2014-1-21,15,10,6,9,1,-6,73,61,52,30.12,30.07,29.98,20,11,3,17,15,25,0.00,4,Snow,35
2014-1-22,12,10,8,5,1,-2,79,65,53,30.08,30.03,29.98,10,6,2,13,8,,0.00,8,Snow,241
2014-1-23,14,11,8,10,7,3,86,80,73,30.43,30.28,30.07,10,3,1,17,15,29,0.00,8,Snow,281
2014-1-24,19,10,0,1,-2,-4,85,55,41,30.39,30.06,29.74,20,13,7,21,14,34,0.00,7,,220
2014-1-25,30,22,14,23,15,3,93,83,62,29.71,29.48,29.29,7,3,0,21,16,34,0.00,7,Snow,292
2014-1-26,32,20,8,25,11,0,85,72,64,29.75,29.57,29.46,20,6,1,20,14,29,0.00,8,Snow,206
2014-1-27,15,10,5,7,2,-4,79,64,53,30.24,30.05,29.80,20,7,0,23,18,40,0.00,6,Snow,279
2014-1-28,10,2,-5,-8,-10,-13,78,54,40,30.38,30.30,30.23,20,13,10,17,11,,0.00,2,,233
2014-1-29,17,11,5,1,-2,-6,61,50,42,30.24,30.18,30.13,20,14,10,17,16,29,0.00,0,,244
2014-1-30,32,22,12,7,3,0,57,39,29,30.23,30.02,29.81,15,11,8,145,22,34,0.00,6,,188
2014-1-31,37,34,32,28,22,14,87,63,44,30.16,30.10,30.01,10,8,2,16,13,23,0.00,8,Snow,235